SCP
0 0 0 1 0 1 1 1 1 1 1 0 0 0 0 0 0 0 0 0 0 0 0 0 0 0 0 0 0 0 0 0 0 0 0 0 0 0 0 0 0 0 0
0 0 0 1 1 1 1 1 1 1 1 1 0 0 0 0 0 0 0 0 0 0 0 0 0 0 0 0 0 0 0 0 0 0 0 0 0 0 0 0 0 0 0
0 0 0 1 1 1 1 1 1 1 1 1 0 0 0 0 0 0 0 0 0 0 0 0 0 0 0 0 0 0 0 0 0 0 0 0 0 0 0 0 0 0 0
0 0 0 1 1 1 1 1 1 1 1 1 1 0 0 0 0 0 0 0 0 0 0 0 0 0 0 0 0 0 0 0 0 0 0 0 0 0 0 0 0 0 0
0 0 0 1 1 1 1 1 1 1 1 1 1 0 0 0 0 0 0 0 0 0 0 0 0 0 0 0 0 0 0 0 0 0 0 0 0 0 0 0 0 0 0
0 0 1 1 1 1 1 1 1 1 1 1 1 1 0 0 0 0 0 0 0 0 0 0 0 0 0 0 0 0 0 0 0 0 0 0 0 0 0 0 0 0 0
0 0 1 1 1 1 1 1 1 1 1 1 1 1 0 0 0 0 0 0 0 0 0 0 0 0 0 0 0 0 0 0 0 0 0 0 0 0 0 0 0 0 0
0 1 1 1 1 1 1 1 1 1 1 1 1 1 1 0 0 0 0 0 0 0 0 0 0 0 0 0 0 0 0 0 0 0 0 0 0 0 0 0 0 0 0
0 1 1 1 1 1 1 1 1 1 1 1 1 1 1 1 0 0 0 0 0 0 0 0 0 0 0 0 0 0 0 0 0 0 0 0 0 0 0 0 0 0 0
0 1 1 1 1 1 1 1 1 1 1 1 1 1 1 0 0 0 0 0 0 0 0 0 0 0 0 0 0 0 0 0 0 0 0 0 0 0 0 0 0 0 0
1 1 1 1 1 1 1 1 1 1 1 1 0 0 0 0 0 0 0 0 0 0 0 0 0 0 0 0 0 0 0 0 0 0 0 0 0 0 0 0 0 0 0
1 1 1 1 1 1 1 1 1 1 1 0 0 0 0 0 0 0 0 0 0 0 0 0 0 0 0 0 0 0 0 0 0 0 0 0 0 0 0 0 0 0 0
1 1 1 1 1 1 1 1 1 1 1 1 0 0 0 0 0 0 0 0 0 0 0 0 0 0 0 0 0 0 0 0 0 0 0 0 0 0 0 0 0 0 0
1 1 1 1 1 1 1 1 1 1 1 1 1 1 1 1 0 0 0 0 0 0 0 0 0 0 0 0 0 0 0 0 0 0 0 0 0 0 0 0 0 0 0
1 1 1 1 1 1 1 1 1 1 1 1 1 1 1 1 0 0 0 0 0 0 0 0 0 0 0 0 0 0 0 0 0 0 0 0 0 0 0 0 0 0 0
1 1 1 1 1 1 1 1 1 1 1 1 1 1 0 0 0 0 0 0 0 0 0 0 0 0 0 0 0 0 0 0 0 0 0 0 0 0 0 0 0 0 0
1 1 1 1 1 1 1 1 1 1 1 1 1 0 0 0 0 0 0 0 0 0 0 0 0 0 0 0 0 0 0 0 0 0 0 0 0 0 0 0 0 0 0
1 1 1 1 1 1 1 1 1 1 1 1 0 0 0 0 0 0 0 0 0 0 0 0 0 0 0 0 0 0 0 0 0 0 0 0 0 0 0 0 0 0 0
1 1 1 1 1 1 1 1 1 1 1 1 0 0 0 0 0 0 0 0 0 0 0 0 0 0 0 0 0 0 0 0 0 0 0 0 0 0 0 0 0 0 0
1 1 1 1 1 1 1 1 1 1 1 1 0 0 0 0 0 0 0 0 0 0 0 0 0 0 0 0 0 0 0 0 0 0 0 0 0 0 0 0 0 0 0
1 1 1 1 1 1 1 1 1 1 1 0 0 0 0 0 0 0 0 0 0 0 0 0 0 0 0 0 0 0 0 0 0 0 0 0 0 0 0 0 0 0 0
1 1 1 1 1 1 1 1 1 1 0 0 0 0 0 0 0 0 0 0 0 0 0 0 0 0 0 0 0 0 0 0 0 0 0 0 0 0 0 0 0 0 0
0 1 1 1 1 1 1 1 1 0 0 0 0 0 0 0 0 0 0 0 0 0 0 0 0 0 0 0 0 0 0 0 0 0 0 0 0 0 0 0 0 0 0
0 0 1 1 1 1 1 1 1 0 0 0 1 1 1 0 0 0 0 0 0 0 0 0 0 0 0 0 0 0 0 0 0 0 0 0 0 0 0 0 0 0 0
0 0 0 1 1 1 1 1 1 1 0 0 1 1 1 1 0 0 0 0 0 0 0 0 0 0 0 0 0 0 0 0 0 0 0 0 0 0 0 0 0 0 0
0 0 0 1 1 1 1 1 1 1 1 1 1 1 1 1 0 0 0 0 0 0 0 0 0 0 0 0 0 0 0 0 0 0 0 0 0 0 0 0 0 0 0
Wind_Speed
8 12 15 11 11 11 10 11 12 13 13 12 12 12 12 11 10 10 10 9 9 9 9 9 8 8 8 8 7 7 7 6 6 7 7 7 7 6 6 6 6 7 10
9 13 15 12 11 11 11 12 12 13 12 12 12 12 12 11 10 9 9 9 8 8 8 8 8 7 7 7 7 7 6 6 6 6 6 7 7 6 5 4 2 4 8
10 13 14 11 11 11 12 12 12 13 13 12 12 12 11 11 10 9 9 8 8 8 8 7 7 7 6 6 6 6 5 5 5 5 6 6 8 7 5 5 4 5 5
11 12 12 13 11 11 11 12 12 13 13 12 12 12 11 10 10 9 8 8 7 7 7 7 6 6 6 5 4 4 4 4 4 5 6 4 5 8 6 5 5 5 5
10 11 12 13 11 11 11 12 12 12 12 12 12 11 11 10 9 8 8 8 7 6 6 6 6 5 5 4 4 4 4 4 4 7 4 2 3 7 6 5 5 5 5
10 11 13 12 12 11 11 12 12 12 12 12 11 11 10 9 9 8 8 7 7 6 6 5 5 5 4 4 4 4 4 4 8 6 3 3 3 7 5 5 5 5 6
10 10 13 12 11 10 10 11 11 11 11 11 10 10 9 8 8 7 7 7 6 5 5 4 4 4 4 4 4 4 4 5 7 4 3 3 3 6 5 4 4 5 5
10 10 12 13 11 10 10 10 9 9 10 10 9 9 9 8 7 7 6 6 5 5 5 4 4 4 4 3 3 3 3 6 6 4 3 2 5 5 4 4 3 4 4
9 9 10 11 11 11 9 9 9 8 9 9 9 9 8 8 7 6 6 5 5 4 4 4 4 3 3 3 3 3 3 5 7 3 3 2 7 5 3 3 3 4 4
8 8 8 8 9 9 10 10 8 8 8 9 9 9 9 9 8 7 7 5 5 4 4 4 3 3 3 3 4 4 5 7 7 4 2 4 7 4 3 3 3 4 4
7 7 7 8 7 7 8 9 9 9 8 9 9 10 9 7 7 7 5 6 5 4 4 3 3 3 4 6 6 6 8 6 4 2 1 6 6 4 3 3 3 3 4
8 7 7 7 7 7 5 6 6 6 7 7 6 7 6 4 3 4 8 6 5 5 5 4 4 6 7 5 6 9 5 4 3 3 3 7 5 4 4 3 3 3 4
8 7 6 6 5 5 5 4 4 3 4 5 5 6 4 3 3 3 4 5 5 6 4 5 6 4 3 1 2 3 3 3 2 2 4 7 5 4 4 4 4 4 4
7 7 6 5 5 4 4 4 4 4 4 4 5 5 4 3 3 2 2 2 2 2 2 2 2 2 2 2 3 3 3 3 2 1 3 6 4 4 4 4 4 4 4
6 6 6 5 5 5 4 4 4 4 4 4 4 4 4 3 3 3 2 1 2 2 2 2 2 2 2 3 3 3 2 2 2 2 2 5 4 4 4 5 5 4 4
6 6 6 6 6 5 4 4 4 4 4 4 3 4 4 3 3 3 3 2 2 2 1 2 2 2 2 2 3 2 3 2 2 3 2 4 6 5 5 5 5 5 5
6 5 6 6 6 5 5 5 4 4 4 4 4 4 4 3 3 3 3 3 2 2 2 2 2 2 2 2 2 2 2 3 2 2 3 3 4 6 6 5 4 5 6
6 6 6 5 6 6 5 4 3 3 3 3 3 3 4 4 4 3 3 2 2 2 2 2 2 2 1 2 2 2 2 2 2 3 3 3 3 3 5 6 5 5 6
6 6 6 6 6 6 5 4 3 3 3 3 2 2 3 3 4 4 3 2 3 2 2 2 2 2 2 2 2 2 2 2 2 2 3 3 2 3 3 5 7 5 5
6 6 6 6 6 5 5 4 3 3 3 3 2 2 3 3 3 3 3 3 3 3 2 2 2 2 2 2 3 1 2 2 2 1 3 2 2 4 4 4 5 6 6
6 6 6 6 6 5 4 4 4 3 3 3 3 3 3 3 3 3 3 4 4 3 3 3 3 3 2 2 2 2 2 3 2 2 2 2 3 3 4 4 4 3 4
7 6 7 7 7 7 4 3 2 2 2 2 2 3 3 3 3 3 3 3 3 3 3 3 3 3 2 2 2 2 3 4 3 3 2 3 3 2 3 4 3 3 4
7 7 6 7 7 6 6 4 4 3 3 3 4 3 3 3 3 2 3 3 3 4 3 4 4 4 3 3 2 3 3 2 2 3 3 3 3 2 3 2 3 3 4
7 7 7 7 7 6 6 5 5 4 3 3 2 3 3 3 3 3 3 3 3 3 3 4 4 4 4 3 2 3 3 3 3 2 4 3 3 3 3 3 3 3 3
7 6 6 6 6 6 6 5 5 5 4 3 3 4 4 4 4 4 4 3 4 3 3 3 3 4 3 3 3 3 3 3 5 4 3 3 4 3 3 3 3 3 3
6 6 6 6 6 6 6 6 6 5 4 3 4 4 4 3 3 4 4 3 4 3 3 3 3 4 3 4 4 4 4 3 4 4 4 4 4 2 2 2 3 3 3
Wind_Direction
148 138 143 153 149 146 143 142 140 138 138 137 138 136 136 137 136 132 130 129 129 128 127 126 125 125 126 124 121 118 117 115 119 126 131 129 127 131 138 145 159 148 124
146 140 144 152 150 147 144 143 142 140 140 140 139 138 138 138 136 134 133 132 132 131 131 129 129 128 127 127 128 128 127 126 130 136 150 151 142 137 140 147 141 101 127
143 141 150 150 149 147 145 143 145 144 144 144 143 143 142 142 141 139 136 136 136 137 136 136 135 134 131 130 132 133 134 136 140 159 198 186 147 143 147 146 132 128 143
142 146 149 146 149 148 148 146 148 150 149 147 147 147 147 146 145 144 142 142 143 144 144 145 144 144 143 142 142 142 144 147 161 206 208 176 152 133 147 154 151 150 154
140 144 140 147 149 151 151 150 151 153 152 151 151 152 151 151 150 149 148 148 147 148 149 151 153 155 156 157 158 160 164 171 195 230 214 170 141 130 153 165 167 168 169
147 149 139 150 152 152 153 153 153 154 153 152 153 153 152 153 153 151 149 148 147 146 145 146 149 152 162 171 174 174 179 196 223 216 203 193 160 135 157 172 178 178 178
151 148 142 147 151 155 156 154 154 155 156 156 155 154 154 155 154 153 151 150 149 149 149 149 149 154 160 165 169 173 189 222 245 218 204 202 125 126 158 180 189 186 186
150 147 139 147 153 157 159 158 158 158 158 158 157 157 156 156 156 154 152 151 150 150 152 152 153 154 158 161 167 175 200 243 231 224 210 180 106 123 154 165 175 179 179
150 149 150 156 159 160 159 158 160 159 162 161 160 160 158 155 153 152 151 150 154 157 162 161 161 165 169 171 180 188 210 253 255 218 204 156 116 134 161 170 178 179 178
151 149 151 156 161 168 164 158 158 158 164 164 162 161 161 160 159 164 164 148 148 146 149 152 159 170 181 187 187 197 219 240 235 217 194 125 121 144 170 180 188 189 189
156 157 161 160 163 172 165 154 165 167 171 173 169 169 179 181 172 174 146 142 149 147 150 153 163 179 199 197 198 211 229 234 218 222 182 107 127 158 184 193 194 200 204
168 168 168 166 166 170 165 159 172 176 169 185 176 176 186 172 167 165 135 151 158 163 171 173 191 204 224 202 188 210 224 228 226 205 142 125 153 185 202 211 214 217 217
169 170 170 167 173 175 170 168 168 170 166 182 176 181 178 174 167 172 163 163 175 187 188 175 204 216 227 233 236 229 245 242 231 213 138 137 161 190 207 215 216 217 222
175 173 172 168 173 186 180 172 176 175 170 174 169 185 172 174 179 163 174 167 182 190 196 220 218 209 235 229 238 237 228 241 238 220 125 136 163 196 211 214 216 213 211
179 175 173 176 173 178 181 191 181 178 173 169 173 171 178 179 176 162 155 174 198 191 199 217 223 211 231 224 235 236 245 241 239 230 155 152 175 197 215 223 225 225 222
183 177 172 175 171 177 180 187 188 182 174 178 174 171 182 179 170 174 172 186 203 216 223 224 214 219 230 238 241 241 249 240 226 237 218 173 180 198 216 226 227 228 225
182 176 177 174 170 180 184 189 187 180 177 178 171 172 182 184 170 181 177 193 192 200 206 222 217 227 225 226 229 231 237 241 224 236 243 232 191 184 197 215 227 232 231
179 172 177 176 169 177 182 191 190 179 173 176 170 168 179 183 180 185 185 183 175 206 209 197 217 220 224 239 232 229 230 227 231 236 240 238 244 219 188 196 222 231 234
175 170 172 175 177 178 177 178 177 169 170 173 169 163 165 180 185 191 191 171 195 200 205 216 190 235 224 243 241 226 237 238 232 235 249 247 241 253 242 179 199 217 230
172 170 172 173 174 174 174 168 166 168 169 169 162 156 173 184 190 199 184 178 205 196 199 210 208 225 238 240 251 236 243 244 240 223 240 235 243 250 253 244 215 199 208
170 171 173 175 170 178 179 182 175 176 174 166 163 161 179 189 192 209 200 178 204 197 206 214 218 210 224 236 245 227 213 216 211 223 243 253 241 246 249 247 251 247 202
175 175 178 177 177 186 180 181 180 182 186 172 163 164 181 185 200 201 203 206 198 200 205 215 220 227 224 220 252 250 226 209 205 208 222 231 251 248 243 236 246 251 263
180 182 185 181 181 183 180 176 170 175 191 179 176 174 174 179 184 203 203 227 222 222 206 218 221 226 230 222 236 262 260 248 215 186 222 237 244 259 258 249 236 239 248
177 179 184 178 180 182 187 189 189 192 191 186 188 170 173 187 187 197 207 215 226 230 217 224 215 233 235 232 221 248 282 307 261 218 205 212 226 243 260 268 261 240 244
174 174 173 174 179 184 192 188 199 205 198 190 190 184 196 188 195 200 200 210 217 224 221 236 228 238 239 248 244 241 244 241 254 266 253 238 230 232 247 259 274 269 256
169 174 171 177 182 185 192 196 205 213 213 209 207 203 204 193 200 200 197 204 217 223 216 225 230 229 244 252 253 247 247 244 250 257 260 257 255 248 251 261 262 260 257